Location: *
(39.6167°S, 171.5333°W)
Time: 05:44:13
(UTC+00:00)

Cosmos 1655 Rocket - Pass Details

Date: 13 May 2021
Orbit: 970 x 1006 km, 82.9° (Epoch: 16 June)

Event Time Altitude Azimuth Distance (km) Brightness Sun altitude
Rises 17:41:05 0° 187° (S) 3,771 6.8 -8.3°
Reaches altitude 10° 17:43:39 10° 186° (S) 2,815 6.2 -7.8°
Maximum altitude 17:50:09 86° 98° (E) 1,023 4.2 -6.6°
Drops below altitude 10° 17:56:34 10° 7° (N) 2,775 6.8 -5.4°
Sets 17:59:05 0° 6° (N) 3,713 7.4 -5.0°
